London-Corbin, KY

3:40 PM EST on November 19, 2017 (GMT -0500)
London-Corbin / McKee

Weather History for KLOZ - January, 2014

Change the Weather History Date:

Saturday, January 18, 2014

  Actual Average Record
Temperature  
Mean Temperature 28 °F 35 °F  
Max Temperature 37 °F 45 °F 69 °F (1996)
Min Temperature 18 °F 26 °F -7 °F (1994)
Degree Days  
Heating Degree Days 37 30  
Month to date heating degree days 592 536  
Since 1 July heating degree days 2199 2188  
Cooling Degree Days 0 0  
Month to date cooling degree days 0 0  
Year to date cooling degree days 0 0  
Moisture  
Dew Point 13 °F    
Average Humidity 61    
Maximum Humidity 84    
Minimum Humidity 37    
Precipitation  
Precipitation T in 0.11 in 1.18 in (2004)
Month to date precipitation 2.12 2.05  
Year to date precipitation 2.12 2.05  
Snow  
Snow 0.00 in - - ()
Month to date snowfall  
Since 1 July snowfall  
Snow Depth -    
Sea Level Pressure  
Sea Level Pressure 30.03 in    
Wind  
Wind Speed 7 mph (WSW)    
Max Wind Speed 16 mph    
Max Gust Speed 22 mph    
Visibility 7 miles    
Events Snow    
T = Trace of Precipitation, MM = Missing Value Source: NWS Daily Summary

Daily Weather History Graph

Daily Weather History Graph

Search for Another Location

Airport or City:

Trip Planner

Search our weather history database for the weather conditions in past years. The results will help you decide how hot, cold, wet, or windy it might be!

Date:

Astronomy

Jan. 18, 2014 Rise Set
Actual Time 7:47 AM EST 5:46 PM EST
Civil Twilight 7:19 AM EST 6:14 PM EST
Nautical Twilight 6:47 AM EST 6:46 PM EST
Astronomical Twilight 6:16 AM EST 7:17 PM EST
Moon 8:22 PM EST (1/18) 8:51 AM EST (1/18)
Length of Visible Light 10h 54m
Length of Day
9h 58m
Waning Gibbous, 94% of the Moon is Illuminated
Jan 18
Waning Gibbous
Jan 24
Last Quarter
Jan 30
New
Feb 6
First Quarter
Feb 14
Full

Hourly Weather History & Observations

Time (EST) Temp. Windchill Dew Point Humidity Pressure Visibility Wind Dir Wind Speed Gust Speed Precip Events Conditions
12:53 AM 19.9 °F 12.1 °F 10.0 °F 65% 30.09 in 10.0 mi WNW 5.8 mph - N/A   Overcast
1:53 AM 19.9 °F 10.1 °F 10.9 °F 68% 30.08 in 10.0 mi WNW 8.1 mph - N/A   Overcast
2:35 AM 19.0 °F 12.3 °F 12.9 °F 77% 30.05 in 3.0 mi NW 4.6 mph - 0.00 in Snow Light Snow
2:43 AM 19.0 °F 13.9 °F 12.9 °F 77% 30.06 in 2.0 mi NW 3.5 mph - 0.00 in Snow Light Snow
2:53 AM 19.0 °F 12.3 °F 12.9 °F 77% 30.10 in 2.5 mi NW 4.6 mph - 0.00 in Snow Light Snow
3:17 AM 19.0 °F 11.1 °F 12.9 °F 77% 30.06 in 3.0 mi NW 5.8 mph - 0.00 in Snow Light Snow
3:31 AM 18.0 °F 11.1 °F 12.9 °F 81% 30.06 in 2.5 mi WNW 4.6 mph - 0.00 in Snow Light Snow
3:42 AM 19.0 °F 13.9 °F 12.9 °F 77% 30.06 in 3.0 mi NW 3.5 mph - 0.00 in Snow Light Snow
3:53 AM 18.0 °F 11.1 °F 12.9 °F 81% 30.10 in 3.0 mi NW 4.6 mph - 0.00 in Snow Light Snow
4:02 AM 18.0 °F 11.1 °F 12.9 °F 81% 30.05 in 3.0 mi North 4.6 mph - 0.00 in Snow Light Snow
4:53 AM 18.0 °F - 12.9 °F 81% 30.10 in 5.0 mi Calm Calm - 0.00 in Snow Light Snow
5:21 AM 18.0 °F - 12.0 °F 78% 30.05 in 7.0 mi Calm Calm - 0.00 in Snow Light Snow
5:53 AM 18.0 °F - 12.0 °F 78% 30.09 in 7.0 mi Calm Calm - 0.00 in Snow Light Snow
6:35 AM 18.0 °F - 12.9 °F 81% 30.05 in 10.0 mi Calm Calm - 0.00 in   Overcast
6:53 AM 18.0 °F 12.7 °F 12.9 °F 81% 30.10 in 8.0 mi SSW 3.5 mph - 0.00 in   Overcast
7:53 AM 19.0 °F 11.1 °F 14.0 °F 81% 30.12 in 6.0 mi West 5.8 mph - 0.00 in Snow Light Snow
8:23 AM 19.0 °F 11.1 °F 14.0 °F 81% 30.07 in 2.5 mi WNW 5.8 mph - 0.00 in Snow Light Snow
8:40 AM 19.0 °F 11.1 °F 14.0 °F 81% 30.08 in 3.0 mi West 5.8 mph - 0.00 in Snow Light Snow
8:53 AM 19.0 °F 11.1 °F 14.0 °F 81% 30.13 in 3.0 mi West 5.8 mph - 0.00 in Snow Light Snow
9:53 AM 19.9 °F 13.4 °F 15.1 °F 81% 30.14 in 4.0 mi WSW 4.6 mph - 0.00 in Snow Light Snow
10:46 AM 21.9 °F 14.5 °F 12.0 °F 66% 30.10 in 10.0 mi Variable 5.8 mph - 0.00 in   Scattered Clouds
10:53 AM 23.0 °F 11.1 °F 12.0 °F 63% 30.14 in 10.0 mi WSW 12.7 mph - 0.00 in   Partly Cloudy
11:53 AM 25.0 °F 17.1 °F 14.0 °F 63% 30.12 in 10.0 mi WSW 6.9 mph - N/A   Clear
12:53 PM 27.0 °F 18.0 °F 14.0 °F 58% 30.06 in 10.0 mi South 9.2 mph - N/A   Clear
1:53 PM 30.0 °F 21.7 °F 14.0 °F 51% 30.01 in 10.0 mi South 9.2 mph - N/A   Scattered Clouds
2:53 PM 32.0 °F 24.2 °F 14.0 °F 48% 29.96 in 10.0 mi SSW 9.2 mph - N/A   Mostly Cloudy
3:53 PM 33.1 °F 23.9 °F 12.0 °F 42% 29.94 in 10.0 mi SSW 12.7 mph - N/A   Partly Cloudy
4:53 PM 35.1 °F 28.6 °F 12.0 °F 39% 29.90 in 10.0 mi South 8.1 mph - N/A   Mostly Cloudy
5:53 PM 34.0 °F 26.0 °F 12.9 °F 42% 29.89 in 10.0 mi South 10.4 mph - N/A   Overcast
6:53 PM 34.0 °F 27.2 °F 12.9 °F 42% 29.90 in 10.0 mi South 8.1 mph - N/A   Overcast
7:53 PM 34.0 °F 28.0 °F 12.9 °F 42% 29.90 in 10.0 mi South 6.9 mph - N/A   Overcast
8:53 PM 34.0 °F 28.0 °F 14.0 °F 44% 29.89 in 10.0 mi SSW 6.9 mph - N/A   Overcast
9:53 PM 36.0 °F 29.6 °F 12.9 °F 39% 29.89 in 10.0 mi SW 8.1 mph - N/A   Overcast
10:53 PM 37.0 °F 30.4 °F 14.0 °F 39% 29.87 in 10.0 mi SSW 9.2 mph - N/A   Overcast
11:53 PM 37.0 °F 31.6 °F 14.0 °F 39% 29.85 in 10.0 mi SW 6.9 mph - N/A   Mostly Cloudy